Le nostre stazioni meteo in Italia

Pubblicità
Il mio iltempo24.it
Carterhouse, Gran Bretagna (99129): Temperatura & dewpoint: 14.01.2018 05:00:00 - 20.01.2018 05:00:00 (GMT)Carterhouse, Gran Bretagna (99129): Temperatura -20cm & Temperatura -100cm: 14.01.2018 05:00:00 - 20.01.2018 05:00:00 (GMT)Carterhouse, Gran Bretagna (99129): precipitazioni: 14.01.2018 05:00:00 - 20.01.2018 05:00:00 (GMT)
Data & Tempo tt [°C] td [°C] tt -20cm [°C] tt -100cm [°C] rr [mm]
20.01.2018 05:00:00 - - - - 0,0
20.01.2018 04:00:00 0,0 -1,1 - - 0,0
20.01.2018 03:00:00 -0,1 -0,9 - - 0,0
20.01.2018 02:00:00 0,2 -0,6 - - 0,0
20.01.2018 01:00:00 0,2 -0,5 - - 0,0
20.01.2018 00:00:00 -0,3 -0,7 - - 0,0
19.01.2018 23:00:00 -0,8 -1,3 - - 0,0
19.01.2018 22:00:00 -1,1 -1,9 - - 0,0
19.01.2018 21:00:00 -1,5 -2,4 - - 0,0
19.01.2018 20:00:00 -0,6 -1,3 - - 0,0
19.01.2018 19:00:00 0,2 -0,4 - - 0,0
19.01.2018 18:00:00 0,3 -0,1 - - 0,0
19.01.2018 17:00:00 0,4 -0,4 - - 0,2
19.01.2018 16:00:00 0,4 -0,7 - - 0,2
19.01.2018 15:00:00 0,3 -0,8 - - 0,2
19.01.2018 14:00:00 0,2 -1,2 - - 0,6
19.01.2018 13:00:00 0,3 -1,1 - - 0,2
19.01.2018 12:00:00 0,5 -1,2 - - 0,2
19.01.2018 11:00:00 0,2 -1,1 - - 0,0
19.01.2018 10:00:00 -0,4 -1,4 - - 0,0
19.01.2018 09:00:00 -0,7 -1,5 3,2 4,7 0,0
19.01.2018 08:00:00 -0,8 -1,5 - - 0,0
19.01.2018 07:00:00 -0,4 -0,9 - - 0,0
19.01.2018 06:00:00 -0,5 -1,0 - - 0,0
19.01.2018 05:00:00 -0,8 -1,2 - - 0,0
19.01.2018 04:00:00 -0,5 -0,8 - - 0,0
19.01.2018 03:00:00 -0,5 -0,9 - - 0,0
19.01.2018 02:00:00 -0,9 -1,4 - - 0,0
19.01.2018 01:00:00 -0,6 -1,2 - - 0,0
19.01.2018 00:00:00 -0,3 -1,0 - - 0,0
18.01.2018 23:00:00 -0,4 -0,8 - - 0,0
18.01.2018 22:00:00 -0,3 -0,9 - - 0,0
18.01.2018 21:00:00 -0,4 -1,2 - - 0,0
18.01.2018 20:00:00 -0,1 -0,9 - - 0,0
18.01.2018 19:00:00 0,2 -0,7 - - 0,2
18.01.2018 18:00:00 0,5 -0,1 - - 0,0
18.01.2018 17:00:00 0,6 0,0 - - 0,4
18.01.2018 16:00:00 0,3 0,0 - - 0,8
18.01.2018 15:00:00 0,5 -0,4 - - 1,0
18.01.2018 14:00:00 0,9 -0,6 - - 0,4
18.01.2018 13:00:00 0,8 -0,7 - - 0,2
18.01.2018 12:00:00 0,5 -1,0 - - 0,0
18.01.2018 11:00:00 0,1 -1,3 - - 0,0
18.01.2018 10:00:00 0,0 -0,5 - - 0,0
18.01.2018 09:00:00 -1,8 -2,2 3,2 4,7 0,0
18.01.2018 08:00:00 -2,0 -2,3 - - 0,0
18.01.2018 07:00:00 -2,0 -2,3 - - 0,0
18.01.2018 06:00:00 -0,9 -0,9 - - 0,0
18.01.2018 05:00:00 -0,6 -0,6 - - 0,0
18.01.2018 04:00:00 -0,5 -0,5 - - 0,0
18.01.2018 03:00:00 -0,2 -0,2 - - 0,0
18.01.2018 02:00:00 -0,1 -0,1 - - 0,0
18.01.2018 01:00:00 0,1 -0,1 - - 0,0
18.01.2018 00:00:00 0,1 -0,3 - - 0,0
17.01.2018 23:00:00 0,4 0,0 - - 0,0
17.01.2018 22:00:00 0,8 0,3 - - 0,0
17.01.2018 21:00:00 0,7 0,1 - - 0,0
17.01.2018 20:00:00 0,7 0,3 - - 0,0
17.01.2018 19:00:00 0,3 -0,1 - - 0,0
17.01.2018 18:00:00 0,4 0,0 - - 0,0
17.01.2018 17:00:00 0,4 0,1 - - 0,0
17.01.2018 16:00:00 0,2 0,1 - - 0,0
17.01.2018 15:00:00 0,4 -0,3 - - 0,0
17.01.2018 14:00:00 0,4 -1,0 - - 0,0
17.01.2018 13:00:00 0,2 -0,7 - - 0,0
17.01.2018 12:00:00 0,1 -0,4 - - 0,0
17.01.2018 11:00:00 0,7 -0,8 - - 0,0
17.01.2018 10:00:00 -0,5 -1,4 - - 0,0
17.01.2018 09:00:00 -0,9 -2,4 3,2 4,7 0,0
17.01.2018 08:00:00 -1,6 -2,9 - - 0,0
17.01.2018 07:00:00 -1,4 -2,7 - - 0,0
17.01.2018 06:00:00 -1,1 -2,2 - - 0,0
17.01.2018 05:00:00 -1,3 -2,3 - - 0,0
17.01.2018 04:00:00 -1,1 -1,9 - - 0,0
17.01.2018 03:00:00 -2,0 -2,9 - - 0,0
17.01.2018 02:00:00 -1,9 -2,7 - - 0,0
17.01.2018 01:00:00 -1,5 -1,8 - - 0,0
17.01.2018 00:00:00 -1,6 -1,9 - - 0,0
16.01.2018 23:00:00 -2,0 -3,2 - - 0,0
16.01.2018 22:00:00 -1,5 -1,6 - - 0,0
16.01.2018 21:00:00 -1,3 -1,9 - - 0,0
16.01.2018 20:00:00 -1,2 -2,0 - - 0,0
16.01.2018 19:00:00 -1,1 -1,9 - - 0,0
16.01.2018 18:00:00 -0,8 -1,8 - - 0,0
16.01.2018 17:00:00 -1,0 -1,6 - - 0,0
16.01.2018 16:00:00 -0,8 -0,8 - - 0,2
16.01.2018 15:00:00 -0,5 -1,0 - - 0,0
16.01.2018 14:00:00 -0,5 -0,7 - - 0,0
16.01.2018 13:00:00 -0,5 -0,7 - - 0,0
16.01.2018 12:00:00 -0,3 -0,5 - - 0,0
16.01.2018 11:00:00 -0,6 -0,7 - - 0,0
16.01.2018 10:00:00 -0,6 -0,7 - - 0,0
16.01.2018 09:00:00 -0,6 -0,9 3,7 4,7 0,0
16.01.2018 08:00:00 -0,8 -1,3 - - 0,0
16.01.2018 07:00:00 -0,6 -1,5 - - 0,0
16.01.2018 06:00:00 -0,5 -1,5 - - 0,0
16.01.2018 05:00:00 -0,5 -1,2 - - 0,0
16.01.2018 04:00:00 -0,3 -0,9 - - 0,0
16.01.2018 03:00:00 -0,5 -0,9 - - 0,0
16.01.2018 02:00:00 -0,1 -0,8 - - 0,0
16.01.2018 01:00:00 0,2 -0,4 - - 0,0
16.01.2018 00:00:00 0,1 -0,3 - - 0,0
15.01.2018 23:00:00 0,3 0,1 - - 0,0
15.01.2018 22:00:00 0,4 0,1 - - 0,0
15.01.2018 21:00:00 0,6 0,1 - - 0,0
15.01.2018 20:00:00 0,8 0,2 - - 0,0
15.01.2018 19:00:00 1,3 0,5 - - 0,0
15.01.2018 18:00:00 1,7 0,7 - - 0,0
15.01.2018 17:00:00 1,5 0,4 - - 0,0
15.01.2018 16:00:00 2,4 1,3 - - 0,2
15.01.2018 15:00:00 3,5 1,5 - - 0,0
15.01.2018 14:00:00 4,2 2,0 - - 0,0
15.01.2018 13:00:00 4,1 2,9 - - 0,0
15.01.2018 12:00:00 4,5 3,4 - - 0,0
15.01.2018 11:00:00 4,6 4,0 - - 0,0
15.01.2018 10:00:00 5,0 4,9 - - 0,8
15.01.2018 09:00:00 5,5 5,3 3,5 4,7 0,4
15.01.2018 08:00:00 5,6 5,5 - - 0,2
15.01.2018 07:00:00 5,7 5,5 - - 0,0
15.01.2018 06:00:00 6,1 5,6 - - 0,2
15.01.2018 05:00:00 6,2 6,2 - - 0,0
15.01.2018 04:00:00 6,4 6,4 - - 0,2
15.01.2018 03:00:00 6,3 6,3 - - 0,6
15.01.2018 02:00:00 5,4 5,2 - - 0,4
15.01.2018 01:00:00 4,1 3,8 - - 1,0
15.01.2018 00:00:00 3,4 3,0 - - 2,8
14.01.2018 23:00:00 2,6 2,1 - - 2,4
14.01.2018 22:00:00 2,6 2,0 - - 1,2
14.01.2018 21:00:00 2,5 2,0 - - 0,8
14.01.2018 20:00:00 2,1 1,6 - - 1,0
14.01.2018 19:00:00 2,5 1,5 - - 0,0
14.01.2018 18:00:00 2,2 1,3 - - 0,0
14.01.2018 17:00:00 2,1 1,3 - - 0,0
14.01.2018 16:00:00 2,1 1,5 - - 0,4
14.01.2018 15:00:00 2,2 1,6 - - 0,4
14.01.2018 14:00:00 2,6 1,5 - - 0,0
14.01.2018 13:00:00 2,2 1,5 - - 0,0
14.01.2018 12:00:00 2,4 1,7 - - 0,2
14.01.2018 11:00:00 2,4 1,2 - - 0,0
14.01.2018 10:00:00 2,2 0,9 - - 0,0
14.01.2018 09:00:00 1,9 0,7 3,4 4,7 0,0
14.01.2018 08:00:00 1,9 0,4 - - 0,0
14.01.2018 07:00:00 1,9 0,6 - - 0,0
14.01.2018 06:00:00 1,6 0,5 - - 0,0
14.01.2018 05:00:00 2,0 0,7 - - 0,0

tt = Temperatura
td = dewpoint
tt -20cm = Temperatura -20cm
tt -100cm = Temperatura -100cm
rr = precipitazioni

Stazioni seguenti

WeatherPro
AMSI
MeteoEarth